Location: Fontevrault
(47.1823°N, 0.0493°E)
Time: 07:54:14
(UTC+00:00)

Cosmos 2263 Rocket - Pass Details

Date: 29 October 2021
Orbit: 825 x 847 km, 71.0° (Epoch: 01 December)

Event Time Altitude Azimuth Distance (km) Brightness Sun altitude
Rises 17:07:25 0° 327° (NNW) 3,373 5.6 -4.0°
Reaches altitude 10° 17:09:59 10° 320° (NW) 2,435 5.0 -4.4°
Maximum altitude 17:15:08 40° 253° (WSW) 1,198 3.8 -5.3°
Drops below altitude 10° 17:20:17 10° 185° (S) 2,424 4.8 -6.1°
Sets 17:22:49 0° 178° (S) 3,355 5.5 -6.6°
